Location: Newark
(50.4348°N, 30.5552°E)
Time: 05:35:27
(UTC+00:00)

Altair - Pass Details

Date: 25 January 2020
Orbit: 1502 x 1682 km, 47.2° (Epoch: 25 February)

Event Time Altitude Azimuth Distance (km) Brightness Sun altitude
Rises 07:51:22 0° 243° (WSW) 4,896 10.1 14.1°
Reaches altitude 10° 07:54:31 10° 241° (WSW) 3,923 9.7 14.4°
Maximum altitude 08:04:29 66° 162° (SSE) 1,806 8.6 15.2°
Drops below altitude 10° 08:14:29 10° 84° (E) 3,929 10.0 16.0°
Sets 08:17:38 0° 82° (E) 4,904 10.4 16.2°
